• In Netherlands
  • List of Countries
  • For 7 days
  • Water Temperature
  • Satellite Maps
  • Weather Map
  • Weather Widgets
  • user-avatar
    Login

    Hourly Weather Wavre

    Today, 20 January, Friday

    Time Temperature Precipitation Wind Pressure Humidity
    00:00 -5°C° 0 mm 2 mps 770 mmHg 66%
    01:00 -5°C° 0 mm 2 mps 770 mmHg 65%
    02:00 -5°C° 0 mm 2 mps 770 mmHg 65%
    03:00 -5°C° 0 mm 2 mps 769 mmHg 64%
    04:00 -5°C° 0 mm 2 mps 769 mmHg 63%
    05:00 -6°C° 0 mm 3 mps 769 mmHg 62%
    06:00 -6°C° 0 mm 3 mps 769 mmHg 61%
    07:00 -6°C° 0 mm 3 mps 769 mmHg 58%
    08:00 -5°C° 0 mm 3 mps 769 mmHg 55%
    09:00 -5°C° 0 mm 3 mps 769 mmHg 52%
    10:00 -2°C° 0 mm 3 mps 769 mmHg 50%
    11:00 -1°C° 0 mm 3 mps 769 mmHg 48%
    12:00 +1°C° 0 mm 3 mps 769 mmHg 47%
    13:00 0°C° 0 mm 3 mps 768 mmHg 50%
    14:00 0°C° 0 mm 3 mps 768 mmHg 53%
    15:00 0°C° 0 mm 3 mps 768 mmHg 56%
    16:00 -1°C° 0 mm 3 mps 768 mmHg 58%
    17:00 -2°C° 0 mm 3 mps 768 mmHg 61%
    18:00 -5°C° 0 mm 3 mps 768 mmHg 64%
    19:00 -5°C° 0 mm 3 mps 768 mmHg 66%
    20:00 -5°C° 0 mm 3 mps 768 mmHg 67%
    21:00 -5°C° 0 mm 3 mps 768 mmHg 69%
    22:00 -5°C° 0 mm 3 mps 768 mmHg 71%
    23:00 -4°C° 0 mm 2 mps 768 mmHg 73%

    Tomorrow, 21 January, Saturday

    Time Temperature Precipitation Wind Pressure Humidity
    00:00 -5°C° 0 mm 2 mps 768 mmHg 74%
    01:00 -5°C° 0 mm 2 mps 767 mmHg 75%
    02:00 -5°C° 0 mm 2 mps 767 mmHg 75%
    03:00 -5°C° 0 mm 2 mps 767 mmHg 75%
    04:00 -5°C° 0 mm 2 mps 767 mmHg 75%
    05:00 -5°C° 0 mm 2 mps 767 mmHg 75%
    06:00 -5°C° 0 mm 2 mps 766 mmHg 75%
    07:00 -5°C° 0 mm 2 mps 766 mmHg 73%
    08:00 -4°C° 0 mm 2 mps 767 mmHg 70%
    09:00 -4°C° 0 mm 2 mps 767 mmHg 68%
    10:00 -3°C° 0 mm 2 mps 766 mmHg 65%
    11:00 -1°C° 0 mm 2 mps 766 mmHg 61%
    12:00 +1°C° 0 mm 2 mps 766 mmHg 58%
    13:00 -1°C° 0 mm 2 mps 766 mmHg 62%
    14:00 +1°C° 0 mm 1 mps 765 mmHg 65%
    15:00 +1°C° 0 mm 1 mps 765 mmHg 68%
    16:00 0°C° 0 mm 1 mps 765 mmHg 71%
    17:00 -4°C° 0 mm 2 mps 765 mmHg 74%
    18:00 -5°C° 0 mm 2 mps 765 mmHg 77%
    19:00 -5°C° 0 mm 2 mps 765 mmHg 76%
    20:00 -5°C° 0 mm 2 mps 765 mmHg 76%
    21:00 -5°C° 0 mm 2 mps 765 mmHg 75%
    22:00 -5°C° 0 mm 2 mps 765 mmHg 74%
    23:00 -5°C° 0 mm 2 mps 765 mmHg 73%

    Day after tomorrow, 22 January, Sunday

    Time Temperature Precipitation Wind Pressure Humidity
    00:00 -4°C° 0 mm 1 mps 765 mmHg 73%
    01:00 -4°C° 0 mm 1 mps 765 mmHg 72%
    02:00 -4°C° 0 mm 1 mps 764 mmHg 72%
    03:00 -4°C° 0 mm 1 mps 764 mmHg 72%
    04:00 -4°C° 0 mm 1 mps 764 mmHg 72%
    05:00 -6°C° 0 mm 1 mps 764 mmHg 72%
    06:00 -6°C° 0 mm 0 mps 764 mmHg 72%
    07:00 -5°C° 0 mm 0 mps 764 mmHg 68%
    08:00 -4°C° 0 mm 0 mps 764 mmHg 65%
    09:00 -3°C° 0 mm 0 mps 764 mmHg 62%
    10:00 -1°C° 0 mm 0 mps 764 mmHg 59%
    11:00 0°C° 0 mm 0 mps 764 mmHg 56%
    12:00 +2°C° 0 mm 0 mps 764 mmHg 53%
    13:00 +1°C° 0 mm 0 mps 764 mmHg 56%
    14:00 0°C° 0 mm 0 mps 763 mmHg 59%
    15:00 0°C° 0 mm 0 mps 763 mmHg 62%
    16:00 -1°C° 0 mm 1 mps 763 mmHg 64%
    17:00 -2°C° 0 mm 1 mps 763 mmHg 65%
    18:00 -3°C° 0 mm 1 mps 763 mmHg 66%
    19:00 -3°C° 0 mm 1 mps 763 mmHg 66%
    20:00 -3°C° 0 mm 1 mps 764 mmHg 66%
    21:00 -4°C° 0 mm 0 mps 764 mmHg 66%
    22:00 -4°C° 0 mm 0 mps 764 mmHg 66%
    23:00 -4°C° 0 mm 0 mps 763 mmHg 66%

    23 January, Monday

    Time Temperature Precipitation Wind Pressure Humidity
    00:00 -4°C° 0 mm 0 mps 763 mmHg 66%
    01:00 -4°C° 0 mm 0 mps 763 mmHg 67%
    02:00 -4°C° 0 mm 0 mps 763 mmHg 68%
    03:00 -4°C° 0 mm 0 mps 763 mmHg 68%
    04:00 -5°C° 0 mm 0 mps 763 mmHg 69%
    05:00 -5°C° 0 mm 0 mps 763 mmHg 69%
    06:00 -5°C° 0 mm 0 mps 763 mmHg 70%
    07:00 -4°C° 0 mm 0 mps 763 mmHg 68%
    08:00 -3°C° 0 mm 0 mps 764 mmHg 65%
    09:00 -2°C° 0 mm 0 mps 764 mmHg 63%
    10:00 +1°C° 0 mm 1 mps 764 mmHg 62%
    11:00 +2°C° 0 mm 1 mps 764 mmHg 60%
    12:00 +4°C° 0 mm 1 mps 764 mmHg 58%
    13:00 +3°C° 0 mm 1 mps 763 mmHg 61%
    14:00 +2°C° 0 mm 1 mps 763 mmHg 64%
    15:00 +2°C° 0 mm 1 mps 763 mmHg 67%
    16:00 +1°C° 0 mm 1 mps 763 mmHg 68%
    17:00 +1°C° 0 mm 1 mps 763 mmHg 70%
    18:00 0°C° 0 mm 1 mps 763 mmHg 71%
    19:00 0°C° 0 mm 1 mps 763 mmHg 72%
    20:00 0°C° 0 mm 1 mps 763 mmHg 74%
    21:00 +1°C° 0 mm 1 mps 764 mmHg 76%
    22:00 0°C° 0 mm 1 mps 764 mmHg 78%
    23:00 0°C° 0 mm 1 mps 763 mmHg 81%

    24 January, Tuesday

    Time Temperature Precipitation Wind Pressure Humidity
    00:00 0°C° 0 mm 1 mps 763 mmHg 83%
    01:00 0°C° 0 mm 1 mps 763 mmHg 85%
    02:00 +1°C° 0 mm 1 mps 763 mmHg 86%
    03:00 +1°C° 0 mm 1 mps 763 mmHg 87%
    04:00 +1°C° 0 mm 1 mps 763 mmHg 87%
    05:00 0°C° 0 mm 1 mps 764 mmHg 88%
    06:00 0°C° 0 mm 1 mps 764 mmHg 88%
    07:00 +1°C° 0 mm 1 mps 764 mmHg 88%
    08:00 +1°C° 0 mm 1 mps 764 mmHg 87%
    09:00 +2°C° 0 mm 1 mps 765 mmHg 87%
    10:00 +3°C° 0 mm 1 mps 765 mmHg 86%
    11:00 +3°C° 0 mm 1 mps 765 mmHg 84%
    12:00 +4°C° 0 mm 1 mps 765 mmHg 83%
    13:00 +4°C° 0 mm 1 mps 765 mmHg 85%
    14:00 +3°C° 0 mm 1 mps 765 mmHg 88%
    15:00 +3°C° 0 mm 1 mps 765 mmHg 90%
    16:00 +2°C° 0 mm 1 mps 765 mmHg 92%
    17:00 +1°C° 0 mm 1 mps 766 mmHg 93%
    18:00 -1°C° 0 mm 1 mps 766 mmHg 95%
    19:00 -1°C° 0 mm 1 mps 766 mmHg 95%
    20:00 -3°C° 0 mm 2 mps 766 mmHg 95%
    21:00 -3°C° 0 mm 2 mps 766 mmHg 95%
    22:00 -3°C° 0 mm 2 mps 766 mmHg 94%
    23:00 -3°C° 0 mm 2 mps 766 mmHg 94%

    25 January, Wednesday

    Time Temperature Precipitation Wind Pressure Humidity
    00:00 -3°C° 0 mm 2 mps 766 mmHg 93%
    01:00 -3°C° 0 mm 2 mps 766 mmHg 93%
    02:00 -3°C° 0 mm 2 mps 766 mmHg 93%
    03:00 -4°C° 0 mm 2 mps 766 mmHg 93%
    04:00 -4°C° 0 mm 2 mps 766 mmHg 93%
    05:00 -4°C° 0 mm 2 mps 767 mmHg 93%
    06:00 -4°C° 0 mm 2 mps 767 mmHg 93%
    07:00 -3°C° 0 mm 2 mps 767 mmHg 91%
    08:00 -2°C° 0 mm 2 mps 767 mmHg 88%
    09:00 -2°C° 0 mm 2 mps 767 mmHg 86%
    10:00 -1°C° 0 mm 2 mps 767 mmHg 83%
    11:00 +2°C° 0 mm 2 mps 767 mmHg 80%
    12:00 +3°C° 0 mm 2 mps 767 mmHg 78%
    13:00 +3°C° 0 mm 2 mps 767 mmHg 80%
    14:00 +3°C° 0 mm 1 mps 766 mmHg 82%
    15:00 +3°C° 0 mm 1 mps 766 mmHg 85%
    16:00 +1°C° 0 mm 1 mps 766 mmHg 86%
    17:00 0°C° 0 mm 1 mps 766 mmHg 88%
    18:00 -3°C° 0 mm 2 mps 766 mmHg 89%
    19:00 -1°C° 0 mm 1 mps 766 mmHg 89%
    20:00 -1°C° 0 mm 1 mps 766 mmHg 88%
    21:00 -1°C° 0 mm 1 mps 767 mmHg 87%
    22:00 -2°C° 0 mm 1 mps 766 mmHg 86%
    23:00 -2°C° 0 mm 1 mps 766 mmHg 85%
    Show more